Regional Weather Roundup
Issued by NWS Sterling, VA

Home | Current Version | Previous Version | Graphics & Text | Print | Product List | Glossary On
Versions: 1 2 3 4 5 6 7 8 9 10 11 12 13 14 15 16 17 18 19 20 21 22 23 24 25 26 27 28 29 30 31 32 33 34 35 36 37 38 39 40 41 42 43 44 45 46 47 48 49 50
000
ASUS41 KLWX 211710
RWRLWX

REGIONAL WEATHER ROUNDUP
NATIONAL WEATHER SERVICE BALTIMORE MD/WASHINGTON DC
1200 PM EST SAT JAN 21 2017

Note: "FAIR" indicates few or no clouds below 12,000 feet
with no significant weather and/or obstructions to visibility.
 TC=TEMPERATURE CELSIUS

 * =Non NWS site. Station does not report precipitation (e.g. rain,
    snow, etc.), thunder, or fog.

DCZ001-MDZ009-015-VAZ040>042-051-053>054-211800-
WASHINGTON METRO

CITY           SKY/WX    TMP DP  RH WIND       PRES   REMARKS
WASHINGTON NAT CLOUDY    49  48  97 S7        29.90F
DULLES         FOG       48  46  93 S7        29.88F VSB 1/2
ANDREWS AFB    CLOUDY    48  48  99 VRB5      29.88F
FT BELVOIR     CLOUDY    48  48 100 S5        29.88F
QUANTICO       FOG       46  46 100 S6        29.90F VSB 1/4
COLLEGE PARK*  CLOUDY    46  45  93 S6        29.88F
GAITHERSBURG*  CLOUDY    46  45  93 SE6       29.92F

$$

MDZ006>007-011-014-211800-
BALTIMORE METRO

CITY           SKY/WX    TMP DP  RH WIND       PRES   REMARKS
BWI AIRPORT    CLOUDY    47  47 100 CALM      29.89F FOG
MD SCIENCE CTR   N/A     49  45  86 MISG      29.91F
MARTIN STATE   FOG       46  46 100 CALM      29.92F VSB 1
ANNAPOLIS      FOG       47  46  97 S7        29.91S VSB 1/2
FORT MEADE*    CLOUDY    46  45  93 CALM      29.91F

$$

MDZ012-015-019>023-211800-
MARYLAND EASTERN SHORE

CITY           SKY/WX    TMP DP  RH WIND       PRES   REMARKS
OCEAN CITY     FOG       46  46 100 S7        29.90F VSB 1/2
SALISBURY      CLOUDY    48  47  96 S7        29.90F FOG
BAY BRIDGE AP* CLOUDY    46  45  93 S7        29.90F FOG
CAMBRIDGE*     CLOUDY    45  45 100 S5        29.90F
EASTON*        FOG       46  46 100 SW7       29.95S VSB 1

$$

MDZ017>025-211800-
SOUTHERN MARYLAND

CITY           SKY/WX    TMP DP  RH WIND       PRES   REMARKS
PATUXENT RIVER CLOUDY    46  46 100 SW5       29.90F
ST INIGOES     CLOUDY    47  47 100 CALM      29.89F FOG
LEONARDTOWN*   CLOUDY    45  45 100 CALM      29.91F

$$

MDZ003>005-211800-
NORTH CENTRAL MARYLAND

CITY           SKY/WX    TMP DP  RH WIND       PRES   REMARKS
FREDERICK*     CLOUDY    46  46 100 S5        29.91F FOG
HAGERSTOWN APT FOG       45  43  93 S3        29.86F VSB 1/2
WESTMINSTER*     N/A     46  46 100 S6        29.86F FOG

$$

MDZ501>502-211800-
WESTERN MARYLAND

CITY           SKY/WX    TMP DP  RH WIND       PRES   REMARKS
OAKLAND*         N/A     55  46  71 S8        29.81F
CUMBERLAND*    CLOUDY    43  43 100 CALM      29.88F VSB 1/4

$$

VAZ025>031-211800-
SHENANDOAH VALLEY

CITY           SKY/WX    TMP DP  RH WIND       PRES   REMARKS
WINCHESTER*    FOG       41  41 100 CALM      29.86F VSB 1/4
FRONT ROYAL*   CLOUDY    45  45 100 CALM      29.85F
LURAY*         CLOUDY    48  48 100 CALM      29.83F
NEW MARKET*    CLOUDY    47  46  96 CALM      29.84F
STAUNTON*      MOSUNNY   51  51 100 CALM      29.84F
WAYNESBORO*    SUNNY     59  49  70 CALM      29.83F

$$

WVZ021-048>050-054>055-211800-
EASTERN WEST VIRGINIA PANHANDLE

CITY           SKY/WX    TMP DP  RH WIND       PRES   REMARKS
MARTINSBURG    FOG       43  42  97 CALM      29.86F VSB 1/2
PETERSBURG*    SUNNY     50  46  88 CALM      29.81F

$$

VAZ036>039-050-211800-
CENTRAL FOOTHILLS

CITY           SKY/WX    TMP DP  RH WIND       PRES   REMARKS
CHARLOTTESVILL CLOUDY    50  48  93 S3        29.86F FOG
CULPEPER*      CLOUDY    49  49  98 CALM      29.88F
ORANGE*          N/A     50  50 100 CALM      29.88F FOG
GORDONSVILLE*  CLOUDY    49  49 100 CALM      29.86F
WARRENTON*     CLOUDY    50  47  88 SW3       29.87F

$$

VAZ055>057-211800-
NORTH AND CENTRAL PIEDMONT

CITY           SKY/WX    TMP DP  RH WIND       PRES   REMARKS
FREDERICKSBRG* CLOUDY    51  51 100 CALM      29.87F
STAFFORD*      CLOUDY    49  49 100 CALM      29.92F FOG

$$

NCZ024-NYZ072-PAZ021-071-VAZ022-071-211800-
OTHER REGIONAL OBSERVATIONS

CITY           SKY/WX    TMP DP  RH WIND       PRES   REMARKS
NEW YORK CITY  CLOUDY    43  41  93 W7        29.89F
PHILADELPHIA   CLOUDY    45  44  97 W6        29.89F FOG
PITTSBURGH     PTSUNNY   60  51  72 S7        29.75F
ROANOKE        CLOUDY    47  46  97 CALM      29.88F FOG
RICHMOND       FOG       48  48 100 S3        29.88F VSB 3/4
RALEIGH        FOG       53  52  96 SE3       29.89F VSB 1/8

$$

ANZ530>537-211800-
MARINE OBSERVATIONS

STATION/POSITION TIME  TEMP    WIND        PRES
                       AIR SEA DIR/SP/G
                 (UTC) (F)     (DEG/KT/KT) (MB)
THOMAS PT LIGHT  1700   43 40  160/ 11/ 11   N/A
BALT KEY BRIDGE  1648   44      90/  4/  4 1012.7F
COVE POINT       1648   42     190/  6/  7 1013.4F
LEWISETTA        1642   47 44  210/  3/  3 1012.3F
SOLOMONS ISLAND  1648      41  190/  2/  3   N/A
PINEY POINT      1648          120/  3/  3   N/A

$$




USA.gov is the U.S. government's official web portal to all federal, state and local government web resources and services.